1st Responders/1st Detectors/Storm Spotters Weather Summary for Jackson County, KY

Forecast Maps


Reg. NEXRAD Animation


National Fire Danger: Day 1 & 2 Map

Current NWS Watch/Warnings

SPC Convective Day 1 Outlook


Day 2 Outlook

(Click images to enlarge|Page will refresh every 5 minutes)
UK Ag. Weather Center Desktop Severe Weather Service[HERE]
Jackson County, KY Hazardous Weather Outlook Webcast
(9 AM to 9 PM Mon-Fri)
[Fast]
[Dial-up]


UKAWC 1st Detectors/1st Responders Precision Weather Forecast For JACKSON County, Kentucky
(based on the NWS County Digital Forecast)

ISSUED AT 17:00 UTC ON FRIDAY MAR 22 2019
DAY FRIDAY
EDT 3HR 2P 3P 4P 5P 6P 7P
MAX/MIN -- -- -- -- -- 54°
TEMP 52° 54° 52° 52° 50° 47°
SKY COVER 48% 58% 58% 58% 48% 38%
Clouds
DEW PT 34° 32° 31° 31° 29° 29°
RH 48% 44% 44% 42% 44% 49%
POP 12HR -- -- -- -- -- --
RAIN/SNOW (liq.equ) 0.00in -- -- -- -- --
SNOWFALL 0in -- -- -- -- --
WIND SPEED(MPH) 15 15 15 15 14 13
WIND Gust(MPH) 25 30 31 30 24 16
WIND DIR W NW NW NW NW NW
DEW -- -- -- -- -- --
HeatIndex 52 54 52 52 50 47
Rain Showers -- -- -- -- -- --
Thunder Storm -- -- -- -- -- --
Frost -- -- -- -- -- --
WIND CHILL -- -- -- -- -- --
SPRAY COND
DRY COND
LIVESTOCK COLDSTRESS



DAY SATURDAY SUNDAY MONDAY TUESDAY WEDNESDAY THURSDAY
EDT 6HR 8P 9P 10P 11P MIDN 1A 2A 3A 4A 5A 6A 7A 8A 9A 10A 11A NOON 1P 2P 3P 4P 5P 6P 7P 8P 9P 10P 11P MIDN 1A 2A 5A 8A 11A 2P 5P 8P 2A 8A 2P 8P 2A 8A 2P 8P 2A 8A 2P 8P 2A 8A 2P 8P
MAX/MIN -- -- -- -- -- -- -- -- -- -- -- -- 25° -- -- -- -- -- -- -- -- -- -- 54° -- -- -- -- -- -- -- -- 32° -- -- 63° -- -- 47° 58° -- -- 34° 49° -- -- 29° 61° -- -- 36° 70° --
TEMP 45° 43° 40° 38° 36° 36° 34° 32° 31° 31° 29° 29° 27° 31° 36° 38° 43° 45° 49° 52° 54° 54° 52° 49° 45° 43° 41° 40° 36° 34° 34° 34° 34° 50° 59° 61° 56° 49° 47° 58° 50° 38° 34° 45° 41° 31° 29° 59° 54° 40° 40° 68° 63°
SKY COVER 29% 24% 20% 15% 13% 11% 8% 7% 5% 3% 3% 3% 3% 2% 2% 1% 1% 1% 1% 1% 1% 1% 1% 2% 3% 4% 6% 8% 11% 18% 21% 52% 65% 49% 71% 77% 91% 78% 91% 93% 93% 70% 50% 20% 15% 12% 7% 7% 7% 9% 24% 20% 43%
Clouds
DEW PT 29° 29° 29° 29° 27° 27° 27° 27° 25° 25° 25° 23° 23° 25° 25° 25° 23° 22° 20° 22° 20° 20° 20° 20° 22° 22° 22° 23° 23° 25° 25° 25° 25° 29° 34° 38° 38° 43° 45° 50° 43° 32° 25° 22° 22° 22° 23° 23° 31° 34° 32° 31° 32°
RH 53% 57% 61% 66% 69% 72% 75% 78% 78% 81% 81% 81% 84% 74% 66% 59% 46% 39% 31% 30% 27% 26% 27% 31% 37% 43% 46% 51% 58% 66% 68% 66% 71% 42% 37% 40% 50% 83% 89% 77% 74% 78% 69% 40% 46% 66% 78% 24% 42% 76% 75% 24% 32%
POP 12HR 6% -- -- -- -- -- -- -- -- -- -- -- 2% -- -- -- -- -- -- -- -- -- -- -- 0% -- -- -- -- -- -- -- 0% -- -- -- 29% -- 77% -- 97% -- 33% -- 4% -- 0% -- 0% -- 0% -- 2%
RAIN/SNOW (liq.equ) 0.00in -- -- -- -- -- 0.00in -- -- -- -- -- 0.00in -- -- -- -- -- 0.00in -- -- -- -- -- 0.00in -- -- -- -- -- 0.00in -- 0.00in -- 0.00in -- 0.00in 0.00in 0.06in -- -- -- -- -- -- -- -- -- -- -- -- -- --
SNOWFALL 0in -- -- -- -- -- 0in -- -- -- -- -- 0in -- -- -- -- -- 0in -- -- -- -- -- 0in -- -- -- -- -- 0in -- 0in -- 0in -- 0in 0in 0in -- -- -- -- -- -- -- -- -- -- -- -- -- --
WIND SPEED(MPH) 9 7 7 6 2 5 2 2 2 1 1 1 1 2 1 1 2 2 5 5 5 2 1 1 1 1 1 1 1 1 1 1 1 6 7 7 6 6 6 7 7 8 7 7 7 5 5 2 2 5 5 7 6
WIND DIR NW NW NW NW NW N N N N N N N N N N N N N N N N N NE NE NE NE E E E E E SE S S SW SW SW S SW W N NE NE NE NE NE NE SW NW S S S S
HeatIndex 39 38 36 34 34 32 31 29 28 31 29 29 27 28 36 38 41 45 49 52 54 54 52 49 45 43 41 40 36 34 34 34 34 50 59 61 56 49 47 58 50 32 28 40 37 27 25 59 54 38 36 68 63
Rain Showers -- -- -- -- -- -- -- -- -- -- -- -- -- -- -- -- -- -- -- -- -- -- -- -- -- -- -- -- -- -- -- -- -- -- -- Chance Slight Chance -- Definite Likely Chance -- -- -- -- -- -- -- -- -- -- -- --
Thunder Storm -- -- -- -- -- -- -- -- -- -- -- -- -- -- -- -- -- -- -- -- -- -- -- -- -- -- -- -- -- -- -- -- -- -- -- -- -- -- -- Slight Chance -- -- -- -- -- -- -- -- -- -- -- -- --
Frost -- -- -- -- -- -- Widespread Widespread Widespread Widespread Widespread Widespread Widespread Widespread -- -- -- -- -- -- -- -- -- -- -- -- -- -- -- -- Widespread -- Widespread -- -- -- -- -- -- -- -- -- -- -- -- -- Widespread -- -- -- -- -- --
WIND CHILL 40° 39° 35° 34° -- 32° -- -- -- -- -- -- -- -- -- -- -- -- -- -- -- -- -- -- -- -- -- -- -- -- -- -- -- -- -- -- -- -- -- -- -- 32° 28° 41° 36° 26° 24° -- -- 37° 37° -- --
SPRAY COND
DRY COND
LIVESTOCK COLDSTRESS

Click on individual weather variable above in left-hand column (ie., TEMP, RH, QPF 12HR) to view state forecast maps






NWS 48 Hr. Forecast Maps,

Regional Hourly Observations For JACKSON County, Kentucky
Issued at 100 PM EDT FRI MAR 22 2019
SOUTHEAST KENTUCKY
  
CITY           SKY/WX    TMP DP  RH WIND       PRES   REMARKS
JACKSON        PTSUNNY   52  32  46 NW12G23   29.92F                  
LONDON         FAIR      54  35  48 W20G30    29.97F                  
SOMERSET       FAIR      54  32  43 W13G24    30.02F                  
MIDDLESBORO    FAIR      55  34  43 NW8       29.99F                  
MONTICELLO     FAIR      56  35  45 W18G29    30.04F                  


Current NOWCAST not available:
Nowcasts are not issued routinely during fair weather. Only when
precipitation or other significant weather is occuring in this county will these
forecasts be issued. Currently, there is no short term forecast in effect.


Fire Weather Forecast For JACKSON County, KY
Provided by the National Weather Service:

Issued at: Fri Mar 22 13:05:01 EDT 2019

555 AM EDT Fri Mar 22 2019

                      Today        Tonight      Sat          

Cloud Cover           PCldy        MClear       Clear        
Chance precip (%)     0            0            0            
Precip type           None         None         None         
Temp (24H TREND)      50-55 (+5)   23-31 (-3)   53-56        
Rh % (24H TREND)      40-45 (-8)   75-96 (+6)   20-25        
20ftwnd-AM(mph)       W 6-10 G25                Lgt/Var      
20ftwnd-PM(mph)       NW 9-13 G30  NW 3-7 G14   Lgt/Var      
Precip duration                                              
Precip begin                                                 
Precip end                                                   
Precip amount         0.00         0.00         0.00         
LAL                   1            1            1            
Haines Index (MID)    2                         4            
Mixing hgt(ft-AGL)    6000                      3500         
Transport wnd (mph)   NW 28                     NW  2        
Vent rate (kt-ft)     145739                    5719         
ADI Early             82 Good      13 Gen Poor  12 Poor      
ADI Late              95 Good      5 Very Poor  13 Gen Poor  
Max LVORI Early       4            3            5            
Max LVORI Late        2            5            2            

REMARKS...RANGES OF MIN T EXCEEDING 8 DEGREES & RANGES OF MAX RH        
EXCEEDING 10% INDICATE THE LIKELIHOOD OF THERMAL BELTS. ADI IS        
ATMOSPHERIC DISPERSION INDEX BY LAVDAS. DISPERSION INDEX IS        
MAGNITUDE OF VENT RATE DIVIDED BY 1000.

SPC's Fire Weather Web Tool (Excellent!), SPC's Fire Weather Outlooks, NWS Fire Weather WEB, Fire Danger Class Map,
Keetch-Byram Drought Index, ROMAN Web, Haines Index ,
WFAS's 10-hr Dead Fuel Moist., WFAS's 100-hr Dead Fuel Moist., Probablity of Ignition, Visual blackness Map, Palmer Drought Index, HPC's Rainfall Forecast Maps


Hazardous Weather Outlook For JACKSON County, Kentucky
400 AM EDT Fri Mar 22 2019

 DAY ONE  Today and Tonight.

No hazardous weather is expected at this time.

 DAYS TWO THROUGH SEVEN  Saturday through Thursday.

Freezing temperatures and frost are expected Friday night,
Saturday night, Tuesday night, and Wednesday night.

Thunderstorms will be possible during the day Monday, mainly 
across the Cumberland Valley.

 SPOTTER INFORMATION STATEMENT  

Spotter activation is not anticipated.

Latest JACKSON County, Kentucky Watches, Warnings and Advisories.
Additional Drought Info.: UKAWC Drought Page, Kentucky Drought Watch


7-Day Forecast For JACKSON County, KY

THIS AFTERNOON
Mostly sunny early then becoming partly cloudy. Highs in the mid 50s. West winds around 10 mph. Gusts up to 30 mph.

TONIGHT
Clear. Widespread frost late. Lows in the upper 20s. Northwest winds around 10 mph in the evening becoming light.

SATURDAY
Sunny. Widespread frost early. Highs in the mid 50s. Light winds.

SATURDAY NIGHT
Mostly clear. Widespread frost late. Lows in the mid 30s. Light winds.

SUNDAY
Partly sunny. Areas of frost in the morning. A 30 percent chance of rain showers in the afternoon. Highs in the mid 60s. Light winds.

SUNDAY NIGHT
Showers. Lows in the upper 40s. Chance of rain 80 percent.

MONDAY
Showers and a slight chance of thunderstorms. Highs in the upper 50s. Chance of rain near 100 percent.

MONDAY NIGHT
Mostly cloudy with a 30 percent chance of rain showers. Lows in the mid 30s.

TUESDAY
Sunny. Highs around 50.

TUESDAY NIGHT
Mostly clear. Lows in the upper 20s.

WEDNESDAY
Sunny. Widespread frost. Highs in the lower 60s.

WEDNESDAY NIGHT
Mostly clear. Areas of frost. Lows in the mid 30s.

THURSDAY
Sunny. Highs in the lower 70s.

Ag Weather Center, Department of Biosystems & Agricultural Engineering, University of Kentucky